[[{"header":{"parameterUnit":"m.s-1","parameterCategory":2,"la1":30.2992,"la2":30.254,"lo1":-89.0895,"lo2":-89.0443,"dy":0.0025,"dx":0.0025,"nx":19,"ny":19,"refTime":"2026-03-22T09:00:00:Z","depth":"0","parameterNumber":2,"parameterNumberName":"U-component_of_CURRENTS"},"data":[0,0,0,0.386,0.3867,0.4146,0.4147,0.4225,0.4225,0,0,0,0,0,0,0,0,0,0,0,0.3727,0.3729,0.386,0.3867,0.4146,0.4147,0.4225,0.4225,0,0,0,0,0,0,0,0,0,0,0,0.3727,0.3728,0.373,0.3869,0.4146,0.4147,0.4225,0.408,0,0,0,0,0,0,0,0,0,0,0.3842,0.3771,0.3728,0.373,0.387,0.4146,0.4147,0.4076,0.4089,0.4024,0,0.4066,0,0.4165,0.4226,0.4226,0,0,0,0.3851,0.3761,0.3839,0.3731,0.3873,0.4145,0.4016,0.4085,0.4099,0.404,0.4068,0.4074,0.4166,0.4226,0.4226,0.4281,0.4282,0,0,0.3835,0.3772,0.383,0.3848,0.3937,0.4007,0.4024,0.4097,0.4098,0.4069,0.4079,0.4168,0.4226,0.4226,0.4281,0.4281,0,0,0,0.3802,0.376,0.3843,0.3841,0.3925,0.4015,0.4036,0.4095,0.4124,0.408,0.4168,0.4226,0.4226,0.428,0.4281,0.446,0,0,0,0.3792,0.3744,0.3835,0.38,0.3925,0.4056,0.4031,0.4118,0.4132,0.4168,0.4226,0.4226,0.4279,0.428,0.4454,0.4557,0,0,0,0.3716,0.3737,0.3768,0.3796,0.3931,0.4059,0.4093,0.4125,0.4185,0.4226,0.4226,0.4279,0.428,0.4448,0.4546,0.4645,0,0,0,0.3643,0.371,0.3766,0.3864,0.3928,0.4102,0.4095,0.4197,0.4235,0.4226,0.4279,0.4281,0.4447,0.4539,0.4638,0.4743,0.4784,0,0,0.3692,0.3714,0.3775,0.3834,0.4027,0.4063,0.4228,0.4258,0.4228,0.4231,0.4235,0.4456,0.4545,0.4644,0.482,0.4859,0,0,0,0.3769,0.3829,0.3892,0.4016,0.4126,0.4276,0.4307,0.4332,0.4396,0.4267,0.4432,0.4483,0.454,0.4587,0.4618,0.4409,0.4287,0.4287,0.4287,0.3817,0.3894,0.4039,0.4161,0.4252,0.44,0.4512,0.4542,0.4462,0.4513,0.4611,0.4787,0.4837,0.4862,0.4644,0.4575,0.4576,0.4576,0.4577,0.3996,0.4132,0.418,0.4356,0.4463,0.4579,0.4711,0.4724,0.4858,0.4745,0.4792,0.4751,0.4907,0.4662,0.4588,0.4586,0.4585,0.4584,0.4583,0.4174,0.4237,0.4316,0.4484,0.4634,0.4726,0.4898,0.4994,0.5029,0.5127,0.5126,0.5123,0.4924,0.5129,0.513,0.513,0.5131,0.5132,0.5132,0.4329,0.4397,0.4489,0.4622,0.4689,0.483,0.5019,0.5136,0.5316,0.5348,0.5348,0.4965,0.4955,0.4952,0.5147,0.5144,0.5142,0.5141,0.514,0.456,0.4517,0.4641,0.4699,0.4794,0.4838,0.5055,0.5324,0.5472,0.5589,0.5345,0.5455,0.5411,0.5384,0.5389,0.5686,0.5686,0.5686,0.5686,0.4641,0.4651,0.4701,0.4737,0.4805,0.4839,0.4955,0.5198,0.5418,0.545,0.5448,0.5303,0.5291,0.5226,0.5202,0.5196,0.5438,0.5437,0.5436,0.4701,0.4703,0.4717,0.472,0.4763,0.4775,0.4785,0.4853,0.517,0.5395,0.514,0.5151,0.4895,0.4892,0.4746,0.4729,0.4703,0,0]},{"header":{"parameterUnit":"m.s-1","parameterCategory":2,"la1":30.2992,"la2":30.254,"lo1":-89.0895,"lo2":-89.0443,"dy":0.0025,"dx":0.0025,"nx":19,"ny":19,"refTime":"2026-03-22T09:00:00:Z","depth":"0","parameterNumber":3,"parameterNumberName":"V-component_of_CURRENTS"},"data":[0,0,0,-0.0927,-0.0934,-0.1365,-0.1367,-0.1762,-0.1765,0,0,0,0,0,0,0,0,0,0,0,-0.0743,-0.0743,-0.0926,-0.0935,-0.1364,-0.1367,-0.1762,-0.1765,0,0,0,0,0,0,0,0,0,0,0,-0.0742,-0.0743,-0.0744,-0.0936,-0.1364,-0.1367,-0.1761,-0.1489,0,0,0,0,0,0,0,0,0,0,-0.1097,-0.0975,-0.0743,-0.0744,-0.0938,-0.1363,-0.1368,-0.1479,-0.1506,-0.1504,0,-0.1513,0,-0.1634,-0.1782,-0.1783,0,0,0,-0.0994,-0.0952,-0.1014,-0.0744,-0.0941,-0.1362,-0.1187,-0.1496,-0.1527,-0.154,-0.152,-0.1538,-0.164,-0.1784,-0.1785,-0.1807,-0.1805,0,0,-0.097,-0.0892,-0.0992,-0.1031,-0.0974,-0.1173,-0.12,-0.1517,-0.1542,-0.1522,-0.1549,-0.1647,-0.1786,-0.1788,-0.1809,-0.1807,0,0,0,-0.0862,-0.0875,-0.0936,-0.1011,-0.1095,-0.1184,-0.1215,-0.1531,-0.1532,-0.1554,-0.1651,-0.1787,-0.179,-0.181,-0.1808,-0.1493,0,0,0,-0.085,-0.0808,-0.0923,-0.0893,-0.1087,-0.1353,-0.122,-0.1511,-0.1552,-0.1649,-0.1787,-0.1793,-0.1812,-0.1809,-0.1506,-0.1254,0,0,0,-0.0737,-0.0801,-0.0812,-0.0885,-0.1044,-0.135,-0.138,-0.1525,-0.1608,-0.1783,-0.1794,-0.1814,-0.181,-0.1517,-0.1278,-0.1065,0,0,0,-0.0699,-0.066,-0.0809,-0.08,-0.1038,-0.1195,-0.138,-0.1557,-0.1691,-0.1789,-0.1812,-0.1808,-0.1521,-0.1292,-0.108,-0.0926,-0.0843,0,0,-0.0612,-0.0649,-0.0635,-0.0776,-0.0834,-0.1145,-0.1198,-0.1454,-0.1618,-0.1712,-0.1716,-0.1502,-0.1279,-0.1068,-0.069,-0.0613,0,0,0,-0.0582,-0.0548,-0.0607,-0.067,-0.0851,-0.096,-0.1267,-0.1338,-0.1434,-0.1671,-0.1507,-0.1374,-0.1252,-0.1193,-0.1132,-0.1243,-0.1789,-0.179,-0.179,-0.0384,-0.0436,-0.0409,-0.0493,-0.0592,-0.0842,-0.0877,-0.1007,-0.127,-0.122,-0.1127,-0.0745,-0.0682,-0.0633,-0.0751,-0.1199,-0.1198,-0.1197,-0.1197,-0.0191,-0.0137,-0.02,-0.0177,-0.0283,-0.0332,-0.0464,-0.0586,-0.053,-0.0814,-0.0716,-0.0873,-0.0547,-0.0697,-0.1176,-0.118,-0.1182,-0.1184,-0.1186,-0.0038,-0.0003,0.0016,0.0075,0.0137,-0.001,0.0138,0.0005,-0.0139,-0.0033,-0.0073,-0.0079,-0.0201,-0.0055,-0.0053,-0.0051,-0.0049,-0.0047,-0.0046,0.0118,0.0146,0.0226,0.0309,0.0361,0.0459,0.0479,0.0536,0.0528,0.0388,0.0385,-0.0047,-0.0396,-0.0428,-0.0014,-0.0019,-0.0024,-0.0027,-0.0029,0.0288,0.0278,0.039,0.0453,0.061,0.0792,0.0853,0.1046,0.1104,0.1169,0.0729,0.0582,0.0518,0.0464,0.0451,0.107,0.107,0.107,0.107,0.0363,0.0384,0.0471,0.0566,0.0748,0.0909,0.1272,0.1502,0.141,0.1337,0.1117,0.0832,0.0792,0.0721,0.0661,0.064,0.1294,0.1294,0.1293,0.041,0.0429,0.0474,0.0572,0.0769,0.1035,0.1449,0.1948,0.1755,0.128,0.0957,0.0947,0.0482,0.0427,0.0249,0.0174,0.0111,0,0]}],[{"header":{"parameterUnit":"m.s-1","parameterCategory":2,"la1":30.2992,"la2":30.254,"lo1":-89.0895,"lo2":-89.0443,"dy":0.0025,"dx":0.0025,"nx":19,"ny":19,"refTime":"2026-03-22T09:00:00:Z","depth":"2","parameterNumber":2,"parameterNumberName":"U-component_of_CURRENTS"},"data":[0,0,0,0.2668,0.267,0.2771,0.2772,0.3033,0.3036,0,0,0,0,0,0,0,0,0,0,0,0.2638,0.2639,0.2667,0.267,0.2771,0.2772,0.3033,0.3036,0,0,0,0,0,0,0,0,0,0,0,0.2638,0.2639,0.264,0.267,0.2771,0.2772,0.3032,0.2923,0,0,0,0,0,0,0,0,0,0,0.2808,0.2766,0.2639,0.264,0.2671,0.2771,0.2772,0.2916,0.293,0.3025,0,0.3046,0,0.305,0.3056,0.3058,0,0,0,0.267,0.2754,0.2779,0.264,0.2672,0.2771,0.2726,0.2923,0.2938,0.3044,0.3049,0.3058,0.3055,0.3058,0.306,0.362,0.3624,0,0,0.2664,0.2664,0.2767,0.2788,0.271,0.2722,0.2729,0.2931,0.2958,0.305,0.3064,0.3059,0.306,0.3063,0.3616,0.3621,0,0,0,0.2648,0.2661,0.2677,0.2779,0.2789,0.2725,0.2733,0.2948,0.2953,0.3066,0.3062,0.3062,0.3066,0.3612,0.3618,0.3664,0,0,0,0.2645,0.2651,0.2675,0.2677,0.2784,0.2853,0.2746,0.2939,0.2961,0.3061,0.3062,0.3069,0.3608,0.3615,0.3654,0.3702,0,0,0,0.2632,0.265,0.2663,0.2677,0.2719,0.2849,0.2865,0.2943,0.296,0.3058,0.307,0.3605,0.3614,0.3644,0.3688,0.3826,0,0,0,0.2625,0.2669,0.2663,0.2753,0.2718,0.2905,0.2863,0.3061,0.3172,0.3064,0.3608,0.3617,0.3641,0.3679,0.3817,0.343,0.3443,0,0,0.2673,0.2675,0.2737,0.2735,0.2853,0.289,0.3127,0.3267,0.3343,0.354,0.3552,0.3657,0.3687,0.3824,0.3959,0.3953,0,0,0,0.2751,0.28,0.2844,0.2916,0.302,0.3169,0.3313,0.3421,0.3663,0.3445,0.3832,0.3854,0.3934,0.3688,0.369,0.3661,0.366,0.3659,0.3658,0.2805,0.2863,0.2978,0.3084,0.3206,0.3434,0.3609,0.3815,0.3834,0.4016,0.4017,0.4335,0.408,0.4075,0.4151,0.4151,0.4152,0.4152,0.4152,0.2903,0.2999,0.3085,0.3213,0.3365,0.3589,0.3907,0.4011,0.4319,0.4264,0.4338,0.3909,0.4075,0.4159,0.4158,0.4157,0.4156,0.4156,0.4155,0.2924,0.2991,0.3041,0.326,0.3475,0.3733,0.4005,0.4272,0.4411,0.4536,0.431,0.4302,0.4283,0.4586,0.4587,0.4588,0.4589,0.459,0.459,0.2929,0.2984,0.3122,0.3382,0.3497,0.3777,0.414,0.428,0.4408,0.4412,0.4408,0.4483,0.4469,0.4319,0.4604,0.4602,0.46,0.4599,0.4598,0.3053,0.3026,0.3195,0.3308,0.3584,0.3604,0.3956,0.4038,0.4276,0.4227,0.4333,0.4335,0.429,0.4284,0.4137,0.4359,0.4359,0.4359,0.4359,0.3081,0.3137,0.3163,0.3252,0.3429,0.3482,0.3324,0.3392,0.3679,0.3764,0.379,0.354,0.3561,0.3464,0.3478,0.3309,0.3318,0.3316,0.3315,0.317,0.3137,0.3117,0.3166,0.3261,0.317,0.2821,0.2662,0.2945,0.328,0.3671,0.4277,0.3967,0.3979,0.3872,0.3878,0.3624,0,0]},{"header":{"parameterUnit":"m.s-1","parameterCategory":2,"la1":30.2992,"la2":30.254,"lo1":-89.0895,"lo2":-89.0443,"dy":0.0025,"dx":0.0025,"nx":19,"ny":19,"refTime":"2026-03-22T09:00:00:Z","depth":"2","parameterNumber":3,"parameterNumberName":"V-component_of_CURRENTS"},"data":[0,0,0,0.0245,0.0249,0.0375,0.0375,0.0324,0.0323,0,0,0,0,0,0,0,0,0,0,0,0.0171,0.0172,0.0245,0.0249,0.0375,0.0375,0.0324,0.0323,0,0,0,0,0,0,0,0,0,0,0,0.0171,0.0172,0.0172,0.025,0.0374,0.0375,0.0324,0.0276,0,0,0,0,0,0,0,0,0,0,0.0178,0.0152,0.0171,0.0172,0.0251,0.0374,0.0375,0.0276,0.0279,0.0214,0,0.0236,0,0.0298,0.0317,0.0317,0,0,0,0.0224,0.015,0.019,0.0173,0.0252,0.0374,0.0311,0.0279,0.0282,0.0218,0.0237,0.0237,0.0298,0.0317,0.0316,0.0312,0.0313,0,0,0.0217,0.0183,0.0188,0.0192,0.0284,0.0307,0.0315,0.0283,0.0276,0.0237,0.0238,0.0297,0.0316,0.0315,0.0312,0.0313,0,0,0,0.0214,0.0178,0.0222,0.0191,0.0243,0.0311,0.0321,0.0278,0.0295,0.0238,0.0296,0.0316,0.0315,0.0311,0.0312,0.043,0,0,0,0.0209,0.0179,0.0219,0.0198,0.0245,0.0294,0.0315,0.0296,0.0297,0.0296,0.0316,0.0314,0.031,0.0312,0.0426,0.0473,0,0,0,0.0166,0.0175,0.0191,0.0196,0.0268,0.0297,0.0313,0.0299,0.0332,0.0317,0.0313,0.031,0.0311,0.0421,0.0466,0.0527,0,0,0,0.0123,0.0185,0.0189,0.0269,0.0267,0.0397,0.0314,0.0365,0.0361,0.0315,0.0311,0.0312,0.042,0.0461,0.0523,0.0622,0.0652,0,0,0.0189,0.0191,0.0242,0.0252,0.0418,0.0377,0.049,0.0425,0.0356,0.0299,0.0301,0.0427,0.0465,0.0526,0.0707,0.0734,0,0,0,0.0257,0.0297,0.0348,0.0433,0.0508,0.0568,0.0537,0.0504,0.0457,0.0368,0.0424,0.0444,0.0479,0.0529,0.0551,0.0319,0.0319,0.0319,0.0319,0.0319,0.0373,0.0488,0.0571,0.0638,0.068,0.0695,0.063,0.055,0.0541,0.0539,0.0662,0.0718,0.0735,0.0537,0.0538,0.0538,0.0538,0.0539,0.0467,0.0534,0.0587,0.0708,0.0753,0.0814,0.0816,0.0761,0.0746,0.0653,0.0682,0.0649,0.0766,0.0548,0.0546,0.0545,0.0544,0.0543,0.0543,0.0559,0.0584,0.0644,0.0754,0.0843,0.0875,0.1001,0.0927,0.0845,0.087,0.0892,0.089,0.0732,0.0875,0.0876,0.0876,0.0877,0.0877,0.0877,0.0596,0.0661,0.0709,0.0795,0.0871,0.0987,0.1089,0.1163,0.1129,0.1027,0.1028,0.0775,0.0764,0.0751,0.0885,0.0884,0.0883,0.0882,0.0881,0.0654,0.0645,0.0756,0.0821,0.1024,0.1292,0.1365,0.1539,0.1507,0.1508,0.1119,0.1111,0.1079,0.1061,0.1054,0.1259,0.1259,0.1259,0.1259,0.0646,0.0651,0.0827,0.0992,0.1226,0.1463,0.1826,0.1772,0.1557,0.1312,0.1309,0.1252,0.1238,0.1207,0.1186,0.1177,0.1415,0.1415,0.1414,0.0626,0.0704,0.0852,0.1047,0.1358,0.1732,0.2044,0.1875,0.1471,0.1411,0.1236,0.1289,0.1195,0.1176,0.1113,0.1085,0.1065,0,0]}],[{"header":{"parameterUnit":"m.s-1","parameterCategory":2,"la1":30.2992,"la2":30.254,"lo1":-89.0895,"lo2":-89.0443,"dy":0.0025,"dx":0.0025,"nx":19,"ny":19,"refTime":"2026-03-22T09:00:00:Z","depth":"4","parameterNumber":2,"parameterNumberName":"U-component_of_CURRENTS"},"data":[0,0,0,0.1386,0.1389,0.1457,0.1457,0.1561,0.1562,0,0,0,0,0,0,0,0,0,0,0,0.1362,0.1363,0.1386,0.1389,0.1457,0.1457,0.1561,0.1562,0,0,0,0,0,0,0,0,0,0,0,0.1361,0.1362,0.1364,0.1389,0.1457,0.1457,0.156,0.1498,0,0,0,0,0,0,0,0,0,0,0.1427,0.1419,0.1362,0.1364,0.139,0.1457,0.1457,0.1494,0.1502,0.1544,0,0.1578,0,0.1589,0.1572,0.1573,0,0,0,0.136,0.1413,0.1432,0.1364,0.1391,0.1457,0.1418,0.1498,0.1507,0.1555,0.158,0.1584,0.1591,0.1573,0.1574,0.1747,0.1748,0,0,0.1356,0.1369,0.1426,0.1438,0.1441,0.1416,0.142,0.1503,0.1527,0.158,0.1586,0.1593,0.1574,0.1576,0.1746,0.1747,0,0,0,0.1365,0.1367,0.1382,0.1434,0.1454,0.1419,0.1424,0.1522,0.1529,0.1587,0.1594,0.1575,0.1577,0.1745,0.1747,0.1807,0,0,0,0.1361,0.1374,0.1381,0.1388,0.1453,0.149,0.1442,0.1522,0.1532,0.1594,0.1575,0.1579,0.1745,0.1746,0.1803,0.1865,0,0,0,0.1353,0.1373,0.139,0.1389,0.1432,0.1489,0.1498,0.1523,0.1538,0.1573,0.1579,0.1744,0.1746,0.18,0.1858,0.1829,0,0,0,0.1347,0.1375,0.1391,0.1432,0.1432,0.1472,0.1497,0.1538,0.1568,0.1576,0.1745,0.1747,0.1799,0.1855,0.1827,0.1654,0,0,0,0.1366,0.1378,0.1398,0.1414,0.1448,0.1458,0.153,0.1586,0.1613,0.1712,0.1716,0.1805,0.1858,0.1829,0.1764,0,0,0,0,0.1392,0.1412,0.1423,0.1461,0.1487,0.1541,0.1588,0.1636,0.1738,0.1648,0.1825,0.1858,0.1836,0.1729,0.1755,0.1755,0.1755,0.1755,0.1755,0.1396,0.1419,0.1451,0.149,0.1535,0.1613,0.1677,0.1763,0.1779,0.1847,0.192,0.1967,0.186,0.1916,0.1917,0.1917,0.1917,0.1918,0.1918,0.1378,0.1366,0.1464,0.1511,0.1594,0.1683,0.1822,0.187,0.1998,0.2004,0.1976,0.1821,0.1924,0.1923,0.1922,0.1921,0.1921,0.192,0.192,0.1307,0.13,0.1388,0.1467,0.1615,0.1747,0.1882,0.1998,0.207,0.2104,0.1931,0.2002,0.1976,0.2066,0.2066,0.2066,0.2066,0.2066,0.2066,0.1152,0.1234,0.1272,0.141,0.1507,0.1684,0.1925,0.2007,0.2084,0.2012,0.2121,0.2016,0.2011,0.1985,0.2069,0.2069,0.2068,0.2068,0.2068,0.0978,0.105,0.1081,0.1165,0.1373,0.1497,0.1768,0.1926,0.1951,0.193,0.192,0.1926,0.188,0.1878,0.1845,0.1891,0.1889,0.1887,0,0.0857,0.0883,0.093,0.1001,0.1121,0.137,0.148,0.1652,0.174,0.1663,0.1866,0.1842,0.1849,0.1785,0.1781,0.1735,0,0,0,0.0745,0.0782,0.0772,0.087,0.1005,0.1252,0.1513,0.1532,0.173,0.1805,0.1839,0.1851,0.2025,0.2077,0.2021,0.2015,0.1969,0,0]},{"header":{"parameterUnit":"m.s-1","parameterCategory":2,"la1":30.2992,"la2":30.254,"lo1":-89.0895,"lo2":-89.0443,"dy":0.0025,"dx":0.0025,"nx":19,"ny":19,"refTime":"2026-03-22T09:00:00:Z","depth":"4","parameterNumber":3,"parameterNumberName":"V-component_of_CURRENTS"},"data":[0,0,0,0.0343,0.0345,0.0407,0.0407,0.0382,0.0382,0,0,0,0,0,0,0,0,0,0,0,0.0316,0.0317,0.0343,0.0345,0.0407,0.0407,0.0382,0.0382,0,0,0,0,0,0,0,0,0,0,0,0.0316,0.0317,0.0318,0.0345,0.0407,0.0407,0.0382,0.0359,0,0,0,0,0,0,0,0,0,0,0.0311,0.0299,0.0317,0.0318,0.0346,0.0407,0.0407,0.0359,0.0361,0.0327,0,0.0344,0,0.0366,0.0378,0.0378,0,0,0,0.0336,0.0298,0.0323,0.0318,0.0346,0.0407,0.0376,0.0361,0.0362,0.0328,0.0344,0.0344,0.0366,0.0378,0.0378,0.0341,0.0341,0,0,0.0333,0.0316,0.0322,0.0324,0.0369,0.0375,0.0378,0.0363,0.0359,0.0344,0.0344,0.0365,0.0378,0.0377,0.0341,0.0341,0,0,0,0.0329,0.0313,0.034,0.0324,0.0346,0.0377,0.0381,0.036,0.0372,0.0344,0.0365,0.0378,0.0377,0.0341,0.0341,0.0405,0,0,0,0.0326,0.0312,0.0339,0.0328,0.0347,0.0367,0.0378,0.0373,0.0373,0.0365,0.0378,0.0376,0.0341,0.0341,0.0403,0.046,0,0,0,0.0312,0.031,0.0322,0.0327,0.036,0.0369,0.038,0.0374,0.0385,0.0378,0.0376,0.0341,0.0341,0.0402,0.0456,0.0385,0,0,0,0.0286,0.0321,0.0322,0.0366,0.036,0.0409,0.038,0.0407,0.0408,0.0377,0.0341,0.0341,0.0401,0.0454,0.0384,0.0462,0,0,0,0.032,0.0324,0.0354,0.0357,0.0421,0.0399,0.0439,0.0427,0.0388,0.0337,0.0337,0.0404,0.0456,0.0384,0.0455,0,0,0,0,0.0359,0.0383,0.0401,0.0439,0.0461,0.0481,0.0464,0.0438,0.0407,0.0389,0.0384,0.0415,0.0367,0.041,0.0341,0.0341,0.0341,0.0341,0.0341,0.0392,0.0419,0.0478,0.0512,0.0529,0.0531,0.0524,0.0477,0.0437,0.0422,0.0451,0.0426,0.0476,0.0415,0.0416,0.0416,0.0416,0.0416,0.0417,0.0477,0.0534,0.0546,0.0618,0.0624,0.065,0.0596,0.0562,0.0487,0.0477,0.0425,0.0458,0.0422,0.0421,0.042,0.042,0.0419,0.0419,0.0419,0.0544,0.0574,0.0616,0.0706,0.0763,0.0763,0.0779,0.0708,0.0567,0.0536,0.0501,0.0442,0.045,0.0481,0.0481,0.0481,0.0481,0.0481,0.0481,0.0603,0.0639,0.0719,0.0808,0.0878,0.0942,0.0898,0.0822,0.0671,0.0592,0.0543,0.0446,0.0444,0.045,0.048,0.048,0.048,0.048,0.048,0.0694,0.0706,0.0821,0.09,0.1039,0.1072,0.105,0.0881,0.0761,0.0629,0.0571,0.0566,0.0535,0.053,0.0539,0.0595,0.0596,0.0597,0,0.0745,0.0761,0.0893,0.1011,0.1114,0.1143,0.1067,0.0956,0.0734,0.0734,0.0683,0.0623,0.0618,0.0589,0.0586,0.06,0,0,0,0.0793,0.0824,0.0923,0.1031,0.1144,0.1083,0.104,0.0972,0.0812,0.072,0.0625,0.0618,0.0604,0.0477,0.0418,0.0415,0.0421,0,0]}]]